Location: Taukkyan
(23.1052°N, 94.0030°E)
Time: 11:45:32
(UTC+00:00)

NOSS 3-1 (A) - Pass Details

Date: 06 July 2020
Orbit: 752 x 1461 km, 63.4° (Epoch: 10 August)

Event Time Altitude Azimuth Distance (km) Brightness Sun altitude
Rises 14:15:04 0° 329° (NNW) 4,238 8.0 -20.8°
Reaches altitude 10° 14:17:46 10° 327° (NNW) 3,347 7.3 -21.3°
Maximum altitude 14:26:04 68° 246° (WSW) 1,515 4.5 -22.8°
Enters shadow 14:31:25 27° 171° (S) 2,488 5.2 -23.7°
